FW0014 Weather Reports


time (UTC)temp
F
wind
direction
speed
knots
gust
knots
rain 1hr
in
rain 24hr
in
rain mn
in
humidity
%
barometer
mb
20260506073317 75 181 0.0 0.0 0.00 0.00 0.00 88 1010.2
20260506073011 74 181 0.0 0.0 0.00 0.00 0.00 88 1007.8
20260506072833 75 181 0.0 0.0 0.00 0.00 0.00 88 1010.3
20260506072503 74 181 0.0 0.0 0.00 0.00 0.00 88 1007.9
20260506072330 75 181 0.0 0.0 0.00 0.00 0.00 87 1010.3
20260506072058 74 181 0.0 0.0 0.00 0.00 0.00 87 1007.8
20260506071827 75 181 0.0 0.0 0.00 0.00 0.00 87 1010.3
20260506071550 75 181 0.0 0.0 0.00 0.00 0.00 87 1008.0
20260506071340 75 181 0.0 0.0 0.00 0.00 0.00 87 1010.4
20260506071020 75 181 0.0 0.0 0.00 0.00 0.00 87 1008.0
20260506070834 75 181 0.0 0.0 0.00 0.00 0.00 87 1010.3
20260506070506 75 181 0.0 0.0 0.00 0.00 0.00 87 1008.0
20260506070330 75 181 0.0 0.0 0.00 0.00 0.00 87 1010.4
20260506062503 75 224 0.0 0.0 0.00 0.00 0.00 87 1007.9
20260506062341 75 225 0.0 0.0 0.00 0.00 0.00 87 1010.3
20260506062034 75 224 0.0 0.0 0.00 0.00 0.00 87 1007.9
20260506061816 75 225 0.0 0.0 0.00 0.00 0.00 87 1010.2
20260506061528 75 225 0.0 0.0 0.00 0.00 0.00 86 1007.9
20260506061331 75 225 0.0 0.0 0.00 0.00 0.00 87 1010.2
20260506061014 75 225 0.0 0.0 0.00 0.00 0.00 86 1007.7
20260506060828 75 225 0.0 0.0 0.00 0.00 0.00 86 1010.1
20260506060510 75 225 0.0 0.0 0.00 0.00 0.00 86 1007.8
20260506060323 75 225 0.0 0.0 0.00 0.00 0.00 86 1010.2
20260506060105 75 226 0.0 0.0 0.00 0.00 0.00 86 1007.7
20260506051348 76 189 0.0 0.0 0.00 0.00 0.00 85 1009.4
20260506051100 75 199 0.0 0.0 0.00 0.00 0.00 85 1006.9
20260506050823 76 205 0.0 0.0 0.00 0.00 0.00 85 1009.4
20260506050554 75 185 0.0 0.0 0.00 0.00 0.00 85 1007.1
20260506050319 76 184 0.0 0.0 0.00 0.00 0.00 85 1009.4
20260506045016 75 204 0.0 0.0 0.00 0.00 0.00 84 1007.1
20260506044816 76 199 0.0 0.0 0.00 0.00 0.00 84 1009.4
20260506044608 76 171 0.0 0.0 0.00 0.00 0.00 84 1007.2
20260506044333 76 185 0.0 0.0 0.00 0.00 0.00 84 1009.4
20260506044048 76 206 0.0 0.0 0.00 0.00 0.00 84 1007.1
20260506043827 76 164 0.0 0.0 0.00 0.00 0.00 84 1009.4
20260506043522 76 152 0.0 0.0 0.00 0.00 0.00 83 1006.9
20260506043324 76 196 0.0 0.0 0.00 0.00 0.00 84 1009.3
20260506043019 76 213 0.0 0.0 0.00 0.00 0.00 83 1007.0
20260506042840 76 187 0.0 0.0 0.00 0.00 0.00 83 1009.2
20260506042544 76 179 0.0 0.0 0.00 0.00 0.00 83 1007.1
20260506042316 76 188 0.0 0.0 0.00 0.00 0.00 83 1009.3
20260506042035 76 154 0.0 0.0 0.00 0.00 0.00 83 1006.9
20260506041832 76 170 0.0 0.0 0.00 0.00 0.00 83 1009.2
20260506041530 76 208 0.0 0.0 0.00 0.00 0.00 83 1006.9
20260506041329 76 174 0.0 0.0 0.00 0.00 0.00 83 1009.2
20260506041024 76 193 0.0 0.0 0.00 0.00 0.00 83 1006.7
20260506040824 76 136 0.0 0.0 0.00 0.00 0.00 83 1009.1
20260506040520 76 175 0.0 0.0 0.00 0.00 0.00 83 1006.8
20260506040338 76 180 0.0 0.0 0.00 0.00 0.00 83 1009.0
20260506040040 76 171 0.0 0.0 0.00 0.00 0.00 83 1006.8
20260506035813 76 168 0.0 0.0 0.00 0.00 0.00 83 1009.2
20260506035534 75 181 0.0 0.0 0.00 0.00 0.00 83 1006.7
20260506035330 76 189 0.0 0.0 0.00 0.00 0.00 83 1009.1
20260506035028 75 168 0.0 0.0 0.00 0.00 0.00 83 1006.7
20260506034825 76 183 0.0 0.0 0.00 0.00 0.00 83 1009.0
20260506034524 75 164 0.0 0.0 0.00 0.00 0.00 83 1006.7
20260506034339 76 217 0.0 0.0 0.00 0.00 0.00 83 1009.1
20260506034044 75 198 0.0 0.0 0.00 0.00 0.00 83 1006.6
20260506033814 75 163 0.0 0.0 0.00 0.00 0.00 83 1008.9
20260506033538 75 188 0.0 0.0 0.00 0.00 0.00 83 1006.5
20260506033331 75 193 0.0 0.0 0.00 0.00 0.00 83 1008.8
20260506033034 75 180 0.0 0.0 0.00 0.00 0.00 83 1006.4
20260506032827 75 195 0.0 0.0 0.00 0.00 0.00 83 1008.8
20260506032525 75 161 0.0 0.0 0.00 0.00 0.00 83 1006.5
20260506032323 75 176 0.0 0.0 0.00 0.00 0.00 83 1008.9
20260506032011 75 164 0.0 0.0 0.00 0.00 0.00 83 1006.6
20260506031820 75 160 0.0 0.0 0.00 0.00 0.00 82 1008.9
20260506031604 75 156 0.0 0.0 0.00 0.00 0.00 82 1006.5
20260506031335 76 157 0.0 0.0 0.00 0.00 0.00 82 1008.9
20260506031032 75 136 0.0 0.0 0.00 0.00 0.00 82 1006.5
20260506030829 76 179 0.0 0.0 0.00 0.00 0.00 81 1008.8
20260506030553 75 179 0.0 0.0 0.00 0.00 0.00 81 1006.5
20260506030325 76 180 0.0 0.0 0.00 0.00 0.00 81 1008.8
20260506030050 76 180 0.0 0.0 0.00 0.00 0.00 81 1006.4
20260506025821 76 179 0.0 0.0 0.00 0.00 0.00 81 1008.8
20260506025544 76 180 0.0 0.0 0.00 0.00 0.00 80 1006.5
20260506025318 76 179 0.0 0.0 0.00 0.00 0.00 80 1008.8
20260506025036 76 179 0.0 0.0 0.00 0.00 0.00 80 1006.3
20260506024814 77 179 0.0 0.0 0.00 0.00 0.00 80 1008.6
20260506024529 76 166 0.0 0.0 0.00 0.00 0.00 80 1006.3
20260506024333 77 172 0.0 0.0 0.00 0.00 0.00 80 1008.5
20260506024012 76 191 0.0 0.0 0.00 0.00 0.00 80 1006.1
20260506023827 77 179 0.0 0.0 0.00 0.00 0.00 79 1008.5
20260506023503 76 190 0.0 0.0 0.00 0.00 0.00 79 1006.0
20260506023322 77 158 0.0 0.0 0.00 0.00 0.00 79 1008.3
20260506023057 76 189 0.0 0.0 0.00 0.00 0.00 79 1005.8
20260506022821 77 178 0.0 0.0 0.00 0.00 0.00 79 1008.1
20260506022548 77 178 0.0 0.0 0.00 0.00 0.00 78 1005.6
20260506022315 77 175 0.0 0.0 0.00 0.00 0.00 78 1008.0
20260506022038 77 175 0.0 0.0 0.00 0.00 0.00 78 1005.7
20260506021831 78 174 0.0 2.6 0.00 0.00 0.00 78 1008.1
20260506021528 77 154 0.0 5.2 0.00 0.00 0.00 78 1005.7
20260506021347 78 154 0.0 5.2 0.00 0.00 0.00 77 1008.1
20260506021055 77 154 0.9 5.2 0.00 0.00 0.00 77 1005.8
20260506020822 78 154 3.5 5.2 0.00 0.00 0.00 77 1008.1
20260506020544 78 143 2.6 4.3 0.00 0.00 0.00 76 1005.6
20260506020318 78 175 2.6 4.3 0.00 0.00 0.00 76 1007.9
20260506020106 78 175 2.6 4.3 0.00 0.00 0.00 76 1005.6
20260506015833 79 175 2.6 4.3 0.00 0.00 0.00 76 1008.0
20260506015528 78 174 2.6 4.3 0.00 0.00 0.00 76 1005.4
20260506015331 79 175 4.3 5.2 0.00 0.00 0.00 75 1007.7
20260506015013 79 183 0.0 0.0 0.00 0.00 0.00 75 1005.4
20260506014825 79 182 0.0 4.3 0.00 0.00 0.00 75 1007.6
20260506014507 79 178 0.0 6.1 0.00 0.00 0.00 75 1005.3
20260506014322 79 179 0.0 6.1 0.00 0.00 0.00 75 1007.6
20260506014100 79 168 1.7 7.0 0.00 0.00 0.00 74 1005.2
20260506013817 80 161 4.3 7.0 0.00 0.00 0.00 74 1007.6
20260506013552 79 174 3.5 7.0 0.00 0.00 0.00 74 1005.1
20260506013315 80 187 5.2 7.0 0.00 0.00 0.00 74 1007.4
20260506013042 79 162 0.0 4.3 0.00 0.00 0.00 74 1005.0
20260506012829 80 183 0.0 0.0 0.00 0.00 0.00 73 1007.4
20260506012536 80 199 0.0 0.0 0.00 0.00 0.00 73 1004.9
20260506012326 80 167 0.0 0.0 0.00 0.00 0.00 73 1007.3
20260506012031 80 181 0.0 0.0 0.00 0.00 0.00 73 1004.9
20260506011822 81 164 0.0 0.0 0.00 0.00 0.00 73 1007.3
20260506011527 80 181 0.0 0.0 0.00 0.00 0.00 72 1005.0
20260506011318 81 194 0.0 0.0 0.00 0.00 0.00 72 1007.4
20260506011016 80 168 0.0 0.0 0.00 0.00 0.00 72 1005.0
20260506010815 81 162 0.0 0.0 0.00 0.00 0.00 72 1007.4
20260506010602 81 174 0.0 0.0 0.00 0.00 0.00 71 1004.9
20260506010330 81 186 0.0 0.0 0.00 0.00 0.00 71 1007.4
20260506010054 81 182 0.0 0.0 0.00 0.00 0.00 71 1004.9
20260506005825 82 173 0.0 0.0 0.00 0.00 0.00 71 1007.4
20260506005548 81 167 0.0 0.0 0.00 0.00 0.00 70 1004.9
20260506005322 82 172 0.0 0.0 0.00 0.00 0.00 70 1007.1
20260506005039 82 164 0.0 0.0 0.00 0.00 0.00 70 1004.8
20260506004819 82 156 0.0 0.0 0.00 0.00 0.00 69 1007.1
20260506004541 82 166 0.0 0.0 0.00 0.00 0.00 69 1004.8
20260506004317 83 210 0.0 0.0 0.00 0.00 0.00 69 1007.0
20260506004034 82 178 0.0 0.0 0.00 0.00 0.00 68 1004.8
20260506003828 83 173 0.0 0.0 0.00 0.00 0.00 68 1007.0
20260506003512 83 216 0.0 0.0 0.00 0.00 0.00 68 1004.6
20260506003324 83 183 0.0 0.0 0.00 0.00 0.00 68 1007.0
20260506003004 83 164 0.0 0.0 0.00 0.00 0.00 68 1004.6
20260506002821 83 162 0.0 0.0 0.00 0.00 0.00 67 1007.0
20260506002558 83 210 0.0 0.0 0.00 0.00 0.00 67 1004.6
20260506002338 83 172 0.0 0.0 0.00 0.00 0.00 67 1007.1
20260506002028 83 193 0.0 0.0 0.00 0.00 0.00 67 1004.6
20260506001833 84 196 0.0 0.0 0.00 0.00 0.00 66 1006.9
20260506001512 84 177 0.0 0.0 0.00 0.00 0.00 67 1004.6
20260506001327 84 192 0.0 0.0 0.00 0.00 0.00 67 1006.9
20260506001004 84 166 0.0 0.0 0.00 0.00 0.00 66 1004.5
20260506000822 84 168 0.0 0.0 0.00 0.00 0.00 66 1006.9
20260506000601 84 170 0.0 0.0 0.00 0.00 0.00 66 1004.6
20260506000320 85 181 0.0 0.0 0.00 0.00 0.00 66 1007.1
20260506000118 84 162 0.0 0.0 0.00 0.00 0.00 66 1004.6
20260505235817 85 202 0.0 0.0 0.00 0.00 0.00 66 1007.1
20260505235546 84 178 0.0 0.0 0.00 0.00 0.00 66 1004.7
20260505235314 85 185 0.0 0.0 0.00 0.00 0.00 65 1007.0
20260505235041 84 210 0.0 0.0 0.00 0.00 0.00 66 1004.6
20260505234830 85 161 0.0 0.0 0.00 0.00 0.00 66 1006.9
20260505234532 84 168 0.0 0.0 0.00 0.00 0.00 66 1004.5
20260505234326 85 150 0.0 0.0 0.00 0.00 0.00 65 1007.0
20260505234026 84 155 0.0 0.0 0.00 0.00 0.00 65 1004.7
20260505233823 85 159 0.0 0.0 0.00 0.00 0.00 65 1007.1
20260505233506 84 195 0.0 0.0 0.00 0.00 0.00 64 1004.7
20260505233318 85 195 0.0 0.0 0.00 0.00 0.00 65 1007.0
20260505233058 85 166 0.0 0.0 0.00 0.00 0.00 64 1004.5
20260505232814 85 162 0.0 0.0 0.00 0.00 0.00 64 1006.9
20260505232548 85 207 0.0 0.0 0.00 0.00 0.00 63 1004.5
20260505232332 85 195 0.0 0.0 0.00 0.00 0.00 63 1006.9
20260505232040 85 206 0.0 0.0 0.00 0.00 0.00 63 1004.6
20260505231828 85 229 0.0 0.0 0.00 0.00 0.00 63 1006.9
20260505231534 85 200 0.0 0.0 0.00 0.00 0.00 62 1004.7
20260505231324 85 210 0.0 0.0 0.00 0.00 0.00 63 1007.1
20260505231028 85 193 0.0 0.0 0.00 0.00 0.00 62 1004.6
20260505230820 85 202 0.0 0.0 0.00 0.00 0.00 62 1006.9
20260505230517 85 191 0.0 0.0 0.00 0.00 0.00 62 1004.6
20260505230314 85 208 0.0 0.0 0.00 0.00 0.00 62 1006.9
20260505230016 85 181 0.0 0.0 0.00 0.00 0.00 62 1004.5
20260505225852 85 167 0.0 0.0 0.00 0.00 0.00 63 1006.9
20260505225540 85 223 0.0 0.0 0.00 0.00 0.00 62 1004.5
20260505225347 85 219 0.0 0.0 0.00 0.00 0.00 63 1006.8
20260505225002 85 223 0.0 0.0 0.00 0.00 0.00 62 1004.4
20260505224821 85 214 0.0 0.0 0.00 0.00 0.00 63 1006.8
20260505224543 85 204 0.0 0.0 0.00 0.00 0.00 63 1004.4
20260505224317 85 213 0.0 0.0 0.00 0.00 0.00 62 1006.8
20260505224018 85 166 0.0 0.0 0.00 0.00 0.00 62 1004.4
20260505223853 86 174 0.0 9.6 0.00 0.00 0.00 62 1006.7
20260505223549 85 183 0.0 10.4 0.00 0.00 0.00 61 1004.6
20260505223328 86 239 0.0 10.4 0.00 0.00 0.00 62 1006.9
20260505223041 85 234 7.8 10.4 0.00 0.00 0.00 61 1004.6
20260505222824 86 212 7.0 10.4 0.00 0.00 0.00 62 1006.9
20260505222537 85 217 4.3 8.7 0.00 0.00 0.00 62 1004.6
20260505222321 86 235 5.2 8.7 0.00 0.00 0.00 61 1006.9
20260505222024 85 240 4.3 9.6 0.00 0.00 0.00 61 1004.7
20260505221815 86 222 7.0 10.4 0.00 0.00 0.00 60 1006.9
20260505221508 85 212 5.2 10.4 0.00 0.00 0.00 62 1004.6
20260505221331 86 220 5.2 10.4 0.00 0.00 0.00 60 1006.8
20260505221101 86 202 5.2 9.6 0.00 0.00 0.00 61 1004.5
20260505220828 86 231 6.1 8.7 0.00 0.00 0.00 61 1006.9
20260505220555 86 215 4.3 8.7 0.00 0.00 0.00 61 1004.5
20260505220324 86 239 5.2 8.7 0.00 0.00 0.00 63 1006.9
20260505220104 86 203 5.2 9.6 0.00 0.00 0.00 62 1004.7
20260505215820 86 236 6.1 9.6 0.00 0.00 0.00 62 1006.9
20260505215539 85 210 4.3 7.8 0.00 0.00 0.00 63 1004.7
20260505215336 86 208 3.5 7.8 0.00 0.00 0.00 62 1006.8
20260505215003 85 165 6.1 11.3 0.00 0.00 0.00 62 1004.5
20260505214829 86 175 7.0 11.3 0.00 0.00 0.00 61 1006.8
20260505214605 85 214 6.1 11.3 0.00 0.00 0.00 62 1004.5
20260505214325 86 191 7.0 11.3 0.00 0.00 0.00 61 1006.9
20260505214048 85 206 6.1 8.7 0.00 0.00 0.00 61 1004.6
20260505213821 86 196 5.2 7.8 0.00 0.00 0.00 61 1006.8
20260505213541 85 218 2.6 7.8 0.00 0.00 0.00 63 1004.6
20260505213318 86 230 4.3 10.4 0.00 0.00 0.00 62 1007.0
20260505213034 85 225 6.1 10.4 0.00 0.00 0.00 62 1004.8
20260505212833 86 221 6.1 10.4 0.00 0.00 0.00 61 1007.1
20260505212518 85 170 5.2 12.2 0.00 0.00 0.00 63 1004.9
20260505212329 86 212 7.0 12.2 0.00 0.00 0.00 62 1007.2
20260505212010 85 193 7.0 12.2 0.00 0.00 0.00 62 1005.0
20260505211826 86 179 7.0 13.0 0.00 0.00 0.00 62 1007.3
20260505211502 85 184 3.5 8.7 0.00 0.00 0.00 63 1005.1
20260505211322 85 234 4.3 11.3 0.00 0.00 0.00 64 1007.4
20260505211059 85 207 3.5 11.3 0.00 0.00 0.00 63 1005.2
20260505210818 85 248 5.2 11.3 0.00 0.00 0.00 63 1007.6
20260505210545 85 239 4.3 10.4 0.00 0.00 0.00 63 1005.3
20260505210317 85 270 5.2 10.4 0.00 0.00 0.00 63 1007.6
20260505210044 85 199 7.0 10.4 0.00 0.00 0.00 62 1005.4
20260505205853 86 231 3.5 10.4 0.00 0.00 0.00 63 1007.6
20260505205504 85 228 0.0 0.0 0.00 0.00 0.00 64 1005.3
20260505205327 85 241 0.0 0.0 0.00 0.00 0.00 63 1007.7
20260505205058 85 220 0.0 0.0 0.00 0.00 0.00 64 1005.3
20260505204823 85 223 0.0 0.0 0.00 0.00 0.00 63 1007.7
20260505204559 85 219 0.0 0.0 0.00 0.00 0.00 64 1005.4
20260505204318 85 167 0.0 0.0 0.00 0.00 0.00 66 1007.6
20260505204041 84 171 0.0 0.0 0.00 0.00 0.00 64 1005.4
20260505203814 85 156 0.0 0.0 0.00 0.00 0.00 65 1007.7
20260505203534 84 201 0.0 0.0 0.00 0.00 0.00 64 1005.5
20260505203331 85 222 0.0 0.0 0.00 0.00 0.00 64 1007.8
20260505203029 84 199 0.0 0.0 0.00 0.00 0.00 65 1005.5
20260505202828 85 224 0.0 0.0 0.00 0.00 0.00 65 1007.8
20260505202512 84 226 0.0 0.0 0.00 0.00 0.00 65 1005.5
20260505202323 85 243 0.0 0.0 0.00 0.00 0.00 67 1007.9
20260505202005 84 233 0.0 0.0 0.00 0.00 0.00 66 1005.7
20260505201819 84 229 0.0 0.0 0.00 0.00 0.00 66 1008.1
20260505201600 84 187 0.0 0.0 0.00 0.00 0.00 66 1005.5
20260505201314 84 239 0.0 0.0 0.00 0.00 0.00 66 1007.9
20260505201051 84 233 0.0 0.0 0.00 0.00 0.00 66 1005.7
20260505200829 84 187 0.0 0.0 0.00 0.00 0.00 67 1008.0
20260505200543 84 206 0.0 0.0 0.00 0.00 0.00 66 1005.6
20260505200346 84 195 0.0 0.0 0.00 0.00 0.00 67 1007.8
20260505200008 84 240 0.0 0.0 0.00 0.00 0.00 68 1005.4
20260505195842 84 177 0.0 0.0 0.00 0.00 0.00 67 1007.8
20260505195537 84 210 0.0 0.0 0.00 0.00 0.00 68 1005.6
20260505195335 84 197 0.0 0.0 0.00 0.00 0.00 68 1008.0
20260505195101 83 247 0.0 0.0 0.00 0.00 0.00 70 1005.6
20260505194829 83 193 0.0 0.0 0.00 0.00 0.00 68 1008.1
20260505194554 83 201 0.0 0.0 0.00 0.00 0.00 68 1005.9
20260505194323 83 196 0.0 0.0 0.00 0.00 0.00 68 1008.1
20260505194032 83 172 0.0 0.0 0.00 0.00 0.00 69 1005.9
20260505193838 83 195 0.0 0.0 0.00 0.00 0.00 69 1008.1
20260505193550 82 212 0.0 0.0 0.00 0.00 0.00 69 1005.9
20260505193328 83 222 0.0 0.0 0.00 0.00 0.00 69 1008.2
20260505193013 83 245 0.0 0.0 0.00 0.00 0.00 70 1005.8
20260505192823 83 224 0.0 0.0 0.00 0.00 0.00 69 1008.0
20260505192505 82 168 0.0 0.0 0.00 0.00 0.00 69 1005.9
20260505192318 83 195 0.0 0.0 0.00 0.00 0.00 70 1008.1
20260505192037 82 228 0.0 0.0 0.00 0.00 0.00 69 1005.9
20260505191831 83 237 0.0 0.0 0.00 0.00 0.00 71 1008.2
20260505191534 82 238 0.0 0.0 0.00 0.00 0.00 70 1006.0
20260505191327 82 222 0.0 0.0 0.00 0.00 0.00 70 1008.3
20260505191025 82 218 0.0 0.0 0.00 0.00 0.00 71 1006.0
20260505190823 82 239 0.0 0.0 0.00 0.00 0.00 70 1008.2
20260505190507 82 244 0.0 0.0 0.00 0.00 0.00 71 1006.1
20260505190320 82 184 0.0 0.0 0.00 0.00 0.00 72 1008.4
20260505190114 81 220 0.0 0.0 0.00 0.00 0.00 73 1006.1
20260505185836 81 147 0.0 0.0 0.00 0.00 0.00 71 1008.5
20260505185531 81 189 0.0 0.0 0.00 0.00 0.00 72 1006.3
20260505185331 81 220 0.0 0.0 0.00 0.00 0.00 73 1008.6
20260505185015 80 217 0.0 0.0 0.00 0.00 0.00 73 1006.3
20260505184827 81 209 0.0 0.0 0.00 0.00 0.00 72 1008.7
20260505184547 80 227 0.0 0.0 0.00 0.00 0.00 72 1006.4
20260505184324 81 233 0.0 0.0 0.00 0.00 0.00 72 1008.7
20260505184040 81 258 0.0 0.0 0.00 0.00 0.00 73 1006.6
20260505183820 81 240 0.0 0.0 0.00 0.00 0.00 74 1008.9
20260505183531 80 256 0.0 0.0 0.00 0.00 0.00 74 1006.7
20260505183315 81 228 0.0 0.0 0.00 0.00 0.00 73 1008.9
20260505183024 80 195 0.0 0.0 0.00 0.00 0.00 73 1006.8
20260505182830 81 224 0.0 0.0 0.00 0.00 0.00 73 1009.1
20260505182505 80 231 0.0 0.0 0.00 0.00 0.00 73 1006.8
20260505182327 80 213 0.0 0.0 0.00 0.00 0.00 73 1009.1
20260505182037 80 213 0.0 0.0 0.00 0.00 0.00 74 1006.9
20260505181824 80 212 0.0 0.0 0.00 0.00 0.00 74 1009.2
20260505181532 79 240 0.0 0.0 0.00 0.00 0.00 74 1007.0
20260505181320 80 245 0.0 0.0 0.00 0.00 0.00 74 1009.2
20260505181021 79 222 0.0 0.0 0.00 0.00 0.00 74 1007.1
20260505180816 80 226 0.0 0.0 0.00 0.00 0.00 74 1009.2
20260505180514 79 185 0.0 0.0 0.00 0.00 0.00 74 1007.1
20260505180332 79 218 0.0 0.0 0.00 0.00 0.00 74 1009.4
20260505180106 79 212 0.0 0.0 0.00 0.00 0.00 75 1007.1
20260505175848 79 220 0.0 0.0 0.00 0.00 0.00 75 1009.4
20260505175528 79 227 0.0 0.0 0.00 0.00 0.00 76 1007.3
20260505175322 79 198 0.0 0.0 0.00 0.00 0.00 75 1009.5
20260505175021 78 204 0.0 0.0 0.00 0.00 0.00 76 1007.3
20260505174839 79 211 0.0 0.0 0.00 0.00 0.00 76 1009.5
20260505174547 78 222 0.0 0.0 0.00 0.00 0.00 75 1007.4
20260505174354 78 228 0.0 0.0 0.00 0.00 0.00 76 1009.6
20260505174013 78 195 0.0 0.0 0.00 0.00 0.00 76 1007.3
20260505173829 79 177 0.0 0.0 0.00 0.00 0.00 76 1009.6
20260505173506 78 218 0.0 0.0 0.00 0.00 0.00 76 1007.5
20260505173323 78 222 0.0 0.0 0.00 0.00 0.00 77 1009.6
20260505173057 77 222 0.0 0.0 0.00 0.00 0.00 77 1007.3
20260505172819 78 197 0.0 0.0 0.00 0.00 0.00 77 1009.6
20260505172549 77 217 0.0 0.0 0.00 0.00 0.00 77 1007.6
20260505172316 77 205 0.0 0.0 0.00 0.00 0.00 77 1009.8
20260505172043 77 210 0.0 0.0 0.00 0.00 0.00 77 1007.6
20260505171827 78 207 0.0 0.0 0.00 0.00 0.00 77 1009.8
20260505171541 77 224 0.0 0.0 0.00 0.00 0.00 76 1007.7
20260505171344 78 233 0.0 0.0 0.00 0.00 0.00 76 1009.9
20260505171101 77 304 0.0 0.0 0.00 0.00 0.00 77 1007.8
20260505170817 77 199 0.0 0.0 0.00 0.00 0.00 77 1010.0
20260505170553 77 218 0.0 0.0 0.00 0.00 0.00 78 1007.8
20260505170333 77 214 0.0 0.0 0.00 0.00 0.00 78 1009.9
20260505170048 76 222 0.0 0.0 0.00 0.00 0.00 78 1007.7
20260505165830 77 225 0.0 0.0 0.00 0.00 0.00 78 1009.7
20260505165541 76 197 0.0 0.0 0.00 0.00 0.00 78 1007.5
20260505165326 76 212 0.0 0.0 0.00 0.00 0.00 78 1009.6
20260505165028 76 228 0.0 0.0 0.00 0.00 0.00 78 1007.5
20260505164843 77 222 0.0 0.0 0.00 0.00 0.00 77 1009.6
20260505164554 76 208 0.0 0.0 0.00 0.00 0.00 78 1007.4
20260505164319 77 218 0.0 0.0 0.00 0.00 0.00 78 1009.6
20260505164046 76 240 0.0 0.0 0.00 0.00 0.00 79 1007.5
20260505163814 77 211 0.0 0.0 0.00 0.00 0.00 79 1009.6
20260505163538 76 197 0.0 0.0 0.00 0.00 0.00 79 1007.5
20260505163351 76 224 0.0 0.0 0.00 0.00 0.00 80 1009.7
20260505163009 75 225 0.0 0.0 0.00 0.00 0.00 79 1007.7
20260505162826 76 211 0.0 0.0 0.00 0.00 0.00 79 1009.7
20260505162559 75 229 0.0 0.0 0.00 0.00 0.00 80 1007.7
20260505162342 76 216 0.0 0.0 0.00 0.00 0.00 79 1009.8
20260505162033 75 199 0.0 0.0 0.00 0.00 0.00 80 1007.8
20260505161837 75 216 0.0 0.0 0.00 0.00 0.00 80 1010.0
20260505161600 75 234 0.0 0.0 0.00 0.00 0.00 80 1007.7
20260505161331 75 242 0.0 0.0 0.00 0.00 0.00 80 1009.9
20260505161053 75 245 0.0 0.0 0.00 0.00 0.00 80 1007.8
20260505160828 75 232 0.0 0.0 0.00 0.00 0.00 80 1009.9
20260505160545 75 234 0.0 0.0 0.00 0.00 0.00 80 1007.7
20260505160323 76 260 0.0 0.0 0.00 0.00 0.00 80 1010.0
20260505153339 75 212 0.0 0.0 0.00 0.00 0.00 81 1009.9
20260505153058 74 218 0.0 0.0 0.00 0.00 0.00 81 1007.8
20260505152832 75 216 0.0 0.0 0.00 0.00 0.00 81 1009.9
20260505152517 74 199 0.0 0.0 0.00 0.00 0.00 81 1007.8
20260505152327 74 218 0.0 0.0 0.00 0.00 0.00 81 1009.7
20260505152011 74 223 0.0 0.0 0.00 0.00 0.00 81 1007.6
20260505151844 74 227 0.0 0.0 0.00 0.00 0.00 81 1009.7
20260505151541 74 191 0.0 0.0 0.00 0.00 0.00 82 1007.6
20260505151318 74 207 0.0 0.0 0.00 0.00 0.00 82 1009.7
20260505151034 73 233 0.0 0.0 0.00 0.00 0.00 82 1007.5
20260505150816 74 228 0.0 0.0 0.00 0.00 0.00 81 1009.6
20260505150525 73 243 0.0 0.0 0.00 0.00 0.00 82 1007.6
20260505150331 74 196 0.0 0.0 0.00 0.00 0.00 81 1009.8
20260505140521 71 224 9.6 19.1 0.00 0.00 0.00 84 1007.5
20260505140322 72 222 10.4 19.1 0.00 0.00 0.00 84 1009.4
20260505124818 71 229 7.0 12.2 0.00 0.00 0.00 86 1008.5
20260505124547 70 235 5.2 10.4 0.00 0.00 0.00 86 1006.4
20260505124315 70 228 7.0 10.4 0.00 0.00 0.00 86 1008.5
20260505124040 70 198 7.0 13.0 0.00 0.00 0.00 86 1006.5
20260505123853 70 236 5.2 13.0 0.00 0.00 0.00 87 1008.5
20260505123508 70 206 7.8 13.0 0.00 0.00 0.00 87 1006.4
20260505123329 70 214 6.1 13.0 0.00 0.00 0.00 87 1008.3
20260505123104 70 241 5.2 10.4 0.00 0.00 0.00 87 1006.3
20260505122845 70 222 6.1 10.4 0.00 0.00 0.00 87 1008.3
20260505122530 70 241 4.3 10.4 0.00 0.00 0.00 87 1006.3
20260505122319 70 241 6.1 10.4 0.00 0.00 0.00 87 1008.3
20260505122026 70 212 6.1 10.4 0.00 0.00 0.00 87 1006.2
20260505121816 70 188 6.1 8.7 0.00 0.00 0.00 87 1008.2
20260505121507 70 193 5.2 8.7 0.00 0.00 0.00 87 1006.1
20260505121351 70 222 7.0 8.7 0.00 0.00 0.00 87 1008.2
20260505121041 70 211 5.2 9.6 0.00 0.00 0.00 87 1006.2
20260505120826 70 212 7.0 10.4 0.00 0.00 0.00 87 1008.2
20260505120531 70 243 5.2 9.6 0.00 0.00 0.00 87 1006.1
20260505120322 70 207 5.2 13.9 0.00 0.00 0.00 87 1008.1
20260505120020 70 206 6.1 13.9 0.00 0.00 0.00 86 1006.1
20260505115837 70 197 5.2 13.9 0.00 0.00 0.00 86 1008.1
20260505115544 69 200 7.0 10.4 0.00 0.00 0.00 87 1006.1
20260505115351 70 224 5.2 9.6 0.00 0.00 0.00 87 1008.0
20260505115007 69 201 4.3 7.8 0.00 0.00 0.00 87 1006.0
20260505114826 70 191 4.3 7.8 0.00 0.00 0.00 87 1008.0
20260505114600 69 206 3.5 10.4 0.00 0.00 0.00 87 1005.9
20260505114324 70 201 3.5 10.4 0.00 0.00 0.00 86 1007.8
20260505114054 69 203 4.3 10.4 0.00 0.00 0.00 86 1005.9
20260505113819 70 197 7.0 10.4 0.00 0.00 0.00 86 1007.8
20260505113548 69 190 4.3 9.6 0.00 0.00 0.00 86 1005.8
20260505113314 70 208 5.2 9.6 0.00 0.00 0.00 86 1007.7
20260505113038 69 189 6.1 13.0 0.00 0.00 0.00 86 1005.8
20260505112852 70 185 6.1 13.0 0.00 0.00 0.00 86 1007.7
20260505112502 69 210 7.8 13.0 0.00 0.00 0.00 86 1005.7
20260505112330 70 199 7.0 13.9 0.00 0.00 0.00 86 1007.7
20260505112055 70 219 8.7 13.9 0.00 0.00 0.00 86 1005.8
20260505111825 70 195 8.7 13.9 0.00 0.00 0.00 86 1007.8
20260505111547 70 198 7.8 13.0 0.00 0.00 0.00 86 1005.7
20260505111320 70 213 8.7 15.6 0.00 0.00 0.00 86 1007.7
20260505111039 69 214 7.8 15.6 0.00 0.00 0.00 86 1005.6
20260505110837 70 183 7.8 15.6 0.00 0.00 0.00 86 1007.6
20260505110502 70 214 7.0 12.2 0.00 0.00 0.00 86 1005.6
20260505110328 70 204 6.1 12.2 0.00 0.00 0.00 86 1007.6
20260505110111 70 216 8.7 12.2 0.00 0.00 0.00 86 1005.7
20260505102025 70 218 5.2 12.2 0.00 0.00 0.00 86 1006.2
20260505101832 70 226 7.8 12.2 0.00 0.00 0.00 86 1008.2
20260505101506 70 194 7.0 12.2 0.00 0.00 0.00 86 1006.2
20260505101328 70 179 7.8 12.2 0.00 0.00 0.00 86 1008.1
20260505101100 70 210 7.0 13.0 0.00 0.00 0.00 86 1006.1
20260505100844 70 216 7.8 13.0 0.00 0.00 0.00 86 1008.1
20260505100531 70 220 7.8 13.0 0.00 0.00 0.00 86 1006.1
20260505100316 70 183 7.0 12.2 0.00 0.00 0.00 86 1008.0
20260505100019 69 207 5.2 11.3 0.00 0.00 0.00 86 1006.0
20260505095829 70 179 7.0 11.3 0.00 0.00 0.00 86 1007.9
20260505095510 69 158 6.1 11.3 0.00 0.00 0.00 86 1005.9
20260505095326 70 193 7.0 11.3 0.00 0.00 0.00 86 1007.8
20260505095100 69 206 7.0 11.3 0.00 0.00 0.00 86 1005.9
20260505094842 70 189 7.0 11.3 0.00 0.00 0.00 86 1007.9
20260505094532 69 192 7.0 12.2 0.00 0.00 0.00 86 1006.1
20260505094337 70 200 6.1 14.8 0.00 0.00 0.00 86 1008.0
20260505094052 69 197 7.0 14.8 0.00 0.00 0.00 86 1006.1
20260505093831 70 209 7.8 14.8 0.00 0.00 0.00 86 1008.1
20260505093545 69 214 7.8 13.9 0.00 0.00 0.00 86 1006.2
20260505093328 70 213 8.7 12.2 0.00 0.00 0.00 86 1008.2
20260505093039 69 189 7.0 13.9 0.00 0.00 0.00 86 1006.1
20260505092825 70 185 6.1 13.9 0.00 0.00 0.00 86 1008.0
20260505092529 69 220 7.8 13.9 0.00 0.00 0.00 86 1006.0
20260505092321 70 200 8.7 13.0 0.00 0.00 0.00 86 1008.0
20260505092023 69 199 7.0 13.0 0.00 0.00 0.00 86 1006.1
20260505091817 70 203 7.0 13.0 0.00 0.00 0.00 86 1008.2
20260505091506 69 206 7.8 11.3 0.00 0.00 0.00 86 1006.2
20260505091333 70 214 7.0 13.0 0.00 0.00 0.00 86 1008.1
20260505091058 69 187 7.0 13.0 0.00 0.00 0.00 86 1006.2
20260505090830 70 226 7.0 13.0 0.00 0.00 0.00 86 1008.1
20260505090552 69 197 7.8 15.6 0.00 0.00 0.00 86 1006.3
20260505090325 70 210 6.1 15.6 0.00 0.00 0.00 86 1008.2
20260505090044 69 204 7.0 15.6 0.00 0.00 0.00 87 1006.3
20260505085821 70 219 9.6 15.6 0.00 0.00 0.00 87 1008.3
20260505085536 69 220 7.0 10.4 0.00 0.00 0.00 87 1006.3
20260505085317 69 206 7.8 10.4 0.00 0.00 0.00 87 1008.2
20260505085031 69 201 7.0 13.9 0.00 0.00 0.00 87 1006.5
20260505084833 69 210 7.0 13.9 0.00 0.00 0.00 87 1008.4
20260505084513 69 231 8.7 13.9 0.00 0.00 0.00 87 1006.4
20260505084328 69 216 9.6 13.9 0.00 0.00 0.00 87 1008.4
20260505084004 69 197 8.7 14.8 0.00 0.00 0.00 87 1006.5
20260505083824 69 211 7.8 12.2 0.00 0.00 0.00 87 1008.4
20260505083558 69 189 7.8 11.3 0.00 0.00 0.00 87 1006.6
20260505083319 69 186 8.7 11.3 0.00 0.00 0.00 87 1008.5
20260505083105 69 193 7.0 12.2 0.00 0.00 0.00 87 1006.7
20260505082815 69 195 7.0 11.3 0.00 0.00 0.00 86 1008.7
20260505082542 69 224 7.0 11.3 0.00 0.00 0.00 86 1007.0
20260505082331 69 204 7.0 11.3 0.00 0.00 0.00 86 1008.8
20260505082032 69 195 6.1 11.3 0.00 0.00 0.00 86 1006.8
20260505081828 69 199 5.2 8.7 0.00 0.00 0.00 86 1008.8
20260505081526 69 209 4.3 8.7 0.00 0.00 0.00 86 1006.9
20260505081343 69 208 7.0 8.7 0.00 0.00 0.00 86 1008.9
20260505081053 69 205 5.2 7.8 0.00 0.00 0.00 86 1007.0
20260505080853 69 212 3.5 8.7 0.00 0.00 0.00 86 1008.9
20260505080519 69 218 4.3 9.6 0.00 0.00 0.00 86 1007.1
20260505080327 69 183 5.2 9.6 0.00 0.00 0.00 86 1009.1
20260505080008 69 177 6.1 9.6 0.00 0.00 0.00 86 1007.1
20260505075823 69 216 5.2 11.3 0.00 0.00 0.00 86 1009.0
20260505075504 69 193 4.3 11.3 0.00 0.00 0.00 86 1007.1
20260505075321 69 156 4.3 11.3 0.00 0.00 0.00 86 1009.0
20260505075102 69 210 6.1 11.3 0.00 0.00 0.00 86 1007.3
20260505074816 69 191 4.3 10.4 0.00 0.00 0.00 86 1009.1
20260505074554 69 202 6.1 10.4 0.00 0.00 0.00 86 1007.0
20260505074350 69 181 7.8 9.6 0.00 0.00 0.00 86 1008.9
20260505074028 69 183 5.2 9.6 0.00 0.00 0.00 86 1007.1
20260505073825 70 211 5.2 9.6 0.00 0.00 0.00 86 1009.1
20260505073524 69 193 4.3 9.6 0.00 0.00 0.00 86 1007.2